Find Starlink 31435

NORAD ID: 59004 Int'l Des: 2024-036 Owner: SPXS Country: US Constellation: starlink operational
LEOCIRCULAR

リアルタイム位置

3D地球を読み込み中...

Starlink 31435について

説明を読み込み中...

次回通過

Passes for default location (London). Set your location on the main map for personalized predictions.

高度履歴

Loading altitude history...

軌道要素

1 59004U 24036G 26126.40740547 -.00000130 00000-0 77424-5 0 9995
2 59004 53.1590 169.7798 0000870 48.4050 311.7025 15.30190558124177
Epoch: May 6, 2026 • Age: 7 hours

現在のステータス

高度 483.3 km
速度 7.62 km/s
衛星直下点 -25.46°S, 109.97°W
打ち上げ日 Feb 23, 2024
運用期間 2.1 years
タイプ internet

技術仕様

分類 Payload
質量 730.00 kg
乾燥質量 700.00 kg
総質量 730.00 kg
長さ 0.30 m
直径 4.10 m
スパン 29.00 m
形状 Box + pan
製造者 SPXS
バスタイプ Starlink V2M
フェーズステータス In Orbit
所有者/国 SPXS/US

Most Searched